Retour au catalogue

USA 78

ActifMilitaireGEO
NORAD 21873·PAYLOAD·🇺🇸 United States

Lancé Feb 11, 1992 depuis Cape Canaveral Space Force Station

Loading…

TLE

FraisSource: Space-Track

Époque: Sep 14, 2026, 00:09 UTC

1 21873U 92006A   26257.00632310 -.00000164  00000-0  00000-0 0  9997
2 21873  14.8544   2.0201 0005344 326.8328  33.7224  0.99042674 26068

Suivez USA 78 en temps réel avec AllMySat

Download on the App Store